Flag for China Weather past 2 weeks in Shantou, Guangdong, China

Now
82 °F

Sprinkles. Broken clouds.


Feels Like: 92 °F
Forecast: 79 / 89 °F
Wind: 6 mph from East

Location: Shantou Airport

Current Time: Jul 26, 2014 at 7:47:16 AM

Latest Report: Jul 26, 2014 at 7:00 AM


Visibility: N/A

Pressure: 29.83 "Hg

Humidity: 89%

Dew point: 79 °F

Location of ShantouLocation

Historic Weather in Shantou — Graph

°F

Shantou temperature yesterday

Maximum temperature yesterday: 88 °F (at 10:00 AM)
Minimum temperature yesterday: 79 °F (at 2:00 AM)
Average temperature yesterday: 83 °F

Past Weeks' High & Low Weather Summary

 TemperatureHumidityPressure
High99 °F (Jul 22, 2:00 PM)100% (Jul 14, 6:00 AM)29.86 "Hg (Jul 14, 6:00 AM)
Low77 °F (Jul 24, 1:00 AM)44% (Jul 22, 2:00 PM)29.36 "Hg (Jul 23, 4:00 PM)
Average86 °F78%29.72 "Hg
* Reported Jul 11 6:00 AM — Jul 26 6:00 AM, Shantou, Weather by CustomWeather, © 2014

Note: Actual official high and low records may vary slightly from our data, if they occured in-between our weather recording intervals... More about our weather records

Advertising

Shantou weather history for previous 24 hours

 ConditionsComfort  
Time TempWeatherWind HumidityBarometerVisibility
6:00 AM
Jul 26
81 °FBroken clouds.3 mph94%29.80 "HgN/A
5:00 AM81 °FPassing clouds.3 mph94%29.80 "HgN/A
4:00 AM81 °FPassing clouds.3 mph94%29.80 "HgN/A
3:00 AM81 °FPassing clouds.3 mph94%29.77 "HgN/A
2:00 AM81 °FPassing clouds.No wind94%29.80 "HgN/A
1:00 AM82 °FPassing clouds.1 mph94%29.80 "HgN/A
12:00 AM82 °FSprinkles. Partly cloudy.3 mph94%29.80 "HgN/A
11:00 PM
Jul 25
84 °FPassing clouds.3 mph89%29.80 "HgN/A
10:00 PM82 °FPassing clouds.1 mph89%29.80 "Hg5 mi
9:00 PM82 °FPassing clouds.1 mph84%29.80 "Hg5 mi
8:00 PM84 °FPassing clouds.3 mph79%29.77 "Hg5 mi
7:00 PM84 °FPartly cloudy.1 mph79%29.74 "HgN/A
6:00 PM86 °FScattered clouds.1 mph79%29.71 "HgN/A
5:00 PM86 °FPassing clouds.1 mph79%29.71 "HgN/A
4:00 PM86 °FPassing clouds.6 mph79%29.71 "HgN/A
3:00 PM84 °FScattered clouds.3 mph84%29.71 "HgN/A
2:00 PM84 °FThunderstorms. Scattered clouds.6 mph79%29.71 "HgN/A
1:00 PM84 °FThunderstorms. Broken clouds.13 mph79%29.71 "Hg3 mi
12:00 PM88 °FBroken clouds.6 mph70%29.74 "HgN/A
11:00 AM88 °FBroken clouds.3 mph75%29.74 "Hg5 mi
10:00 AM88 °FScattered clouds.3 mph75%29.74 "HgN/A
9:00 AM84 °FScattered clouds.1 mph79%29.74 "Hg4 mi
8:00 AM82 °FFog.1 mph84%29.71 "Hg3 mi
7:00 AM81 °FFog.No wind89%29.71 "Hg3 mi
Weather by CustomWeather, © 2014

See weather overviewHow to use our weather pages